Location: Newark
(42.8481°N, 0.4872°E)
Time: 23:00:44
(UTC+00:00)

Transit 2A - Pass Details

Date: 04 November 2020
Orbit: 595 x 963 km, 66.7° (Epoch: 03 December)

Event Time Altitude Azimuth Distance (km) Brightness Sun altitude
Rises 01:00:50 0° 253° (WSW) 3,642 - -57.8°
Reaches altitude 10° 01:04:00 10° 267° (W) 2,697 - -57.4°
Maximum altitude 01:08:55 23° 318° (NW) 1,892 - -56.9°
Drops below altitude 10° 01:13:45 10° 10° (N) 2,620 - -56.3°
Exits shadow 01:16:37 - 24° (NNE) 3,463 9.9 -55.9°
Sets 01:16:47 0° 25° (NNE) 3,514 9.9 -55.9°
